Home > Weather > Plzen > Past weeks

Flag for Czech Republic Past Weather in Plzen, Czech Republic — Yesterday and Last 2 Weeks

Now
52 °F

Fog.


Feels Like: 50 °F
Forecast: 51 / 71 °F
Wind: 5 mph from West

Location: Kocelovice

Current Time: May 25, 2016 at 5:33:01 AM

Latest Report: May 25, 2016 at 5:00 AM


Visibility: 4 mi

Pressure: 29.91 "Hg

Humidity: 97%

Dew Point: 51 °F

Location of PlzenLocation

Past Weather in Plzen — Graph

°F

Plzen Temperature Yesterday

Maximum temperature yesterday: 60 °F (at 5:00 PM)
Minimum temperature yesterday: 52 °F (at 5:00 AM)
Average temperature yesterday: 55 °F

High & Low Weather Summary for the Past Weeks

 TemperatureHumidityPressure
High81 °F (May 22, 4:00 PM)99% (May 24, 6:00 AM)30.16 "Hg (May 24, 6:00 AM)
Low36 °F (May 15, 4:00 AM)27% (May 22, 5:00 PM)29.35 "Hg (May 13, 9:00 AM)
Average54 °F70%29.85 "Hg
* Reported May 10 4:00 AM — May 25 4:00 AM, Plzen, Weather by CustomWeather, © 2016

Note: Actual official high and low records may vary slightly from our data, if they occured in-between our weather recording intervals... More about our weather records

Advertising

Plzen Weather History for the Previous 24 Hours

Scroll right to see more
 ConditionsComfort  
Time TempWeatherWind HumidityBarometerVisibility
4:00 AM
Wed, May 25
52 °FFog.6 mph96%29.90 "Hg5 mi
3:00 AM52 °FFog.5 mph96%29.90 "Hg4 mi
2:00 AM53 °FFog.3 mph97%29.90 "Hg4 mi
1:00 AM53 °FFog.5 mph97%29.90 "Hg4 mi
12:00 AM54 °FFog.3 mph97%29.88 "Hg4 mi
11:00 PM
Tue, May 24
55 °FCool.3 mph99%29.87 "Hg3 mi
10:00 PM55 °FLight rain. Low clouds.3 mph99%29.86 "Hg4 mi
9:00 PM55 °FLight rain. Low clouds.2 mph98%29.85 "Hg5 mi
8:00 PM56 °FLow clouds.5 mph95%29.81 "Hg12 mi
7:00 PM56 °FRain. Low clouds.3 mph99%29.82 "Hg3 mi
6:00 PM57 °FThundershowers. Low clouds.6 mph97%29.79 "Hg3 mi
5:00 PM60 °FOvercast.6 mph88%29.78 "Hg10 mi
4:00 PM59 °FThunderstorms. Low clouds.5 mph93%29.77 "Hg7 mi
3:00 PM56 °FThundershowers. Overcast.3 mph97%29.81 "Hg2 mi
2:00 PM58 °FOvercast.3 mph88%29.78 "Hg11 mi
1:00 PM55 °FLight rain. Low clouds.6 mph95%29.79 "Hg5 mi
12:00 PM56 °FLight rain. Low clouds.3 mph87%29.79 "Hg9 mi
11:00 AM56 °FLow clouds.3 mph88%29.78 "Hg8 mi
10:00 AM55 °FLow clouds.3 mph92%29.78 "Hg7 mi
9:00 AM54 °FFog.3 mph94%29.78 "Hg5 mi
8:00 AM53 °FFog.3 mph96%29.77 "Hg4 mi
7:00 AM52 °FFog.2 mph99%29.77 "Hg2 mi
6:00 AM52 °FFog.2 mph99%29.77 "Hg1 mi
5:00 AM52 °FCool.2 mph97%29.77 "Hg6 mi
Weather by CustomWeather, © 2016

See weather overviewHow to use our weather pages